{"data":{"norad_id":43876,"epoch":"2026-05-25T04:43:19.866144Z","epoch_age_seconds":57289,"freshness":"FRESH","line1":"1 43876U 18111A   26145.19675771  .00002073  00000+0  91523-4 0  9996","line2":"2 43876  97.3597  51.1716 0001935  80.7775 279.3681 15.22854297411280","mean_motion":15.22854297,"eccentricity":0.0001935,"inclination_deg":97.3597,"raan_deg":51.1716,"arg_perigee_deg":80.7775,"mean_anomaly_deg":279.3681,"bstar":9.1523e-5,"rev_number":41128,"period_min":94.559276145904,"perigee_km":495.90574651268,"apogee_km":498.56651591446,"semimajor_km":6875.3731312136,"source":"CELESTRAK","updated_at":"2026-05-25T13:37:55.924722Z"}}